EW5684 Weather Reports


Display with metric or nautical units.
time (UTC)temp
F
wind
direction
speed
MPH
gust
MPH
rain 1hr
in
rain 24hr
in
rain mn
in
humidity
%
barometer
mb
20260903102927 86 245 3.0 5.0 0.00 0.00 0.00 32 1021.5
20260903102426 86 144 2.0 5.0 0.00 0.00 0.00 33 1021.6
20260903101927 85 131 2.0 5.0 0.00 0.00 0.00 31 1021.5
20260903101654 85 134 2.0 5.0 0.00 0.00 0.00 33 1021.5
20260903101146 85 290 2.0 6.0 0.00 0.00 0.00 32 1021.5
20260903100426 87 213 4.0 6.0 0.00 0.00 0.00 31 1021.7
20260903095926 87 251 2.0 5.0 0.00 0.00 0.00 31 1021.8
20260903095427 87 214 3.0 5.0 0.00 0.00 0.00 31 1021.8
20260903094926 87 183 2.0 4.0 0.00 0.00 0.00 31 1021.9
20260903094427 87 172 2.0 4.0 0.00 0.00 0.00 31 1021.9
20260903093926 85 158 1.0 4.0 0.00 0.00 0.00 32 1022.0
20260903093426 85 162 1.0 5.0 0.00 0.00 0.00 32 1022.0
20260903092926 85 149 2.0 5.0 0.00 0.00 0.00 32 1022.0
20260903092426 85 203 2.0 4.0 0.00 0.00 0.00 31 1022.2
20260903091925 85 240 1.0 4.0 0.00 0.00 0.00 31 1022.1
20260903091426 84 118 1.0 4.0 0.00 0.00 0.00 30 1022.1
20260903090925 85 113 1.0 4.0 0.00 0.00 0.00 28 1022.1
20260903090426 85 109 2.0 4.0 0.00 0.00 0.00 29 1022.1
20260903090147 85 149 3.0 5.0 0.00 0.00 0.00 28 1022.1
20260903085425 84 123 1.0 5.0 0.00 0.00 0.00 27 1022.1
20260903084925 84 121 2.0 4.0 0.00 0.00 0.00 30 1022.1
20260903084425 83 148 1.0 4.0 0.00 0.00 0.00 29 1022.1
20260903083925 83 134 2.0 4.0 0.00 0.00 0.00 32 1022.2
20260903083646 83 127 1.0 3.0 0.00 0.00 0.00 33 1022.2
20260903082924 82 104 1.0 3.0 0.00 0.00 0.00 34 1022.1
20260903082424 81 104 2.0 3.0 0.00 0.00 0.00 34 1022.0
20260903081925 81 188 1.0 4.0 0.00 0.00 0.00 36 1022.0
20260903081424 81 204 2.0 4.0 0.00 0.00 0.00 36 1022.1
20260903080934 81 207 1.0 3.0 0.00 0.00 0.00 37 1022.1
20260903080424 80 202 1.0 2.0 0.00 0.00 0.00 36 1022.1
20260903075925 80 202 0.0 3.0 0.00 0.00 0.00 36 1022.0
20260903075424 80 203 1.0 3.0 0.00 0.00 0.00 36 1021.9
20260903074924 81 200 1.0 3.0 0.00 0.00 0.00 35 1021.8
20260903074423 80 196 2.0 3.0 0.00 0.00 0.00 36 1021.7
20260903074145 80 203 1.0 2.0 0.00 0.00 0.00 36 1021.7
20260903073644 79 203 0.0 2.0 0.00 0.00 0.00 36 1021.7
20260903072923 78 203 1.0 2.0 0.00 0.00 0.00 37 1021.8
20260903072423 78 203 0.0 2.0 0.00 0.00 0.00 38 1021.8
20260903071923 78 203 1.0 2.0 0.00 0.00 0.00 37 1021.8
20260903071646 77 203 0.0 1.0 0.00 0.00 0.00 38 1021.7
20260903070923 77 241 0.0 0.0 0.00 0.00 0.00 38 1021.6
20260903070424 77 244 0.0 0.0 0.00 0.00 0.00 33 1021.8
20260903065922 76 244 0.0 0.0 0.00 0.00 0.00 34 1021.6
20260903065423 75 244 0.0 0.0 0.00 0.00 0.00 33 1021.6
20260903064922 74 245 0.0 0.0 0.00 0.00 0.00 37 1021.6
20260903064644 73 244 0.0 0.0 0.00 0.00 0.00 38 1021.6
20260903063922 73 243 0.0 0.0 0.00 0.00 0.00 41 1021.5
20260903063422 72 243 0.0 0.0 0.00 0.00 0.00 43 1021.4
20260903063150 71 243 0.0 1.0 0.00 0.00 0.00 49 1021.4
20260903062423 71 243 0.0 1.0 0.00 0.00 0.00 53 1021.4
20260903061922 70 0 0.0 2.0 0.00 0.00 0.00 53 1021.3
20260903061422 69 0 0.0 2.0 0.00 0.00 0.00 54 1021.2
20260903060922 68 0 0.0 2.0 0.00 0.00 0.00 52 1021.3
20260903060422 67 0 1.0 2.0 0.00 0.00 0.00 55 1021.5
20260903055922 67 0 0.0 1.0 0.00 0.00 0.00 57 1021.3
20260903055422 67 0 0.0 1.0 0.00 0.00 0.00 57 1021.2
20260903054922 67 0 0.0 0.0 0.00 0.00 0.00 57 1021.1
20260903054644 67 0 0.0 0.0 0.00 0.00 0.00 57 1021.0
20260903053922 66 0 0.0 2.0 0.00 0.00 0.00 57 1021.0
20260903053642 67 0 1.0 3.0 0.00 0.00 0.00 55 1021.0
20260903052921 67 0 2.0 3.0 0.00 0.00 0.00 52 1020.9
20260903052420 68 0 0.0 0.0 0.00 0.00 0.00 51 1020.9
20260903051920 68 0 0.0 0.0 0.00 0.00 0.00 51 1020.9
20260903051421 69 0 0.0 0.0 0.00 0.00 0.00 51 1020.8
20260903050920 69 0 0.0 0.0 0.00 0.00 0.00 51 1020.7
20260903050420 69 0 0.0 0.0 0.00 0.00 0.00 49 1020.7
20260903045920 69 0 0.0 0.0 0.00 0.00 0.00 50 1020.6
20260903045637 69 0 0.0 0.0 0.00 0.00 0.00 50 1020.6
20260903044920 69 0 0.0 0.0 0.00 0.00 0.00 50 1020.5
20260903044420 69 0 0.0 0.0 0.00 0.00 0.00 49 1020.4
20260903043920 70 0 0.0 0.0 0.00 0.00 0.00 49 1020.3
20260903043419 70 0 0.0 0.0 0.00 0.00 0.00 49 1020.3
20260903042920 70 0 0.0 0.0 0.00 0.00 0.00 49 1020.3
20260903042419 70 0 0.0 3.0 0.00 0.00 0.00 48 1020.3
20260903041919 70 0 0.0 5.0 0.00 0.00 0.00 49 1020.2
20260903041419 70 0 1.0 5.0 0.00 0.00 0.00 49 1020.2
20260903040919 70 0 4.0 5.0 0.00 0.00 0.00 50 1020.3
20260903040639 70 0 2.0 4.0 0.00 0.00 0.00 51 1020.2
20260903035919 70 0 3.0 4.0 0.00 0.00 0.00 51 1020.2
20260903035419 70 0 1.0 3.0 0.00 0.00 0.00 51 1020.3
20260903034918 70 0 3.0 4.0 0.00 0.00 0.00 51 1020.3
20260903034419 70 0 2.0 4.0 0.00 0.00 0.00 52 1020.3
20260903033918 70 0 2.0 4.0 0.00 0.00 0.00 52 1020.3
20260903033418 70 0 3.0 3.0 0.00 0.00 0.00 53 1020.3
20260903032918 70 0 1.0 2.0 0.00 0.00 0.00 53 1020.4
20260903032418 70 0 0.0 3.0 0.00 0.00 0.00 53 1020.5
20260903031918 70 0 0.0 3.0 0.00 0.00 0.00 53 1020.5
20260903031634 70 0 2.0 3.0 0.00 0.00 0.00 54 1020.4
20260903031137 70 0 1.0 2.0 0.00 0.00 0.00 54 1020.4
20260903030418 70 0 1.0 2.0 0.00 0.00 0.00 54 1020.4
20260903025917 70 0 1.0 2.0 0.00 0.00 0.00 54 1020.4
20260903025417 70 0 1.0 2.0 0.00 0.00 0.00 54 1020.4
20260903024918 70 0 1.0 2.0 0.00 0.00 0.00 54 1020.3
20260903024417 70 0 0.0 2.0 0.00 0.00 0.00 55 1020.3
20260903024136 70 0 1.0 2.0 0.00 0.00 0.00 55 1020.4
20260903023418 70 0 1.0 1.0 0.00 0.00 0.00 56 1020.4
20260903022917 70 0 0.0 0.0 0.00 0.00 0.00 55 1020.4
20260903022416 70 0 0.0 0.0 0.00 0.00 0.00 55 1020.4
20260903021916 70 0 0.0 0.0 0.00 0.00 0.00 55 1020.3
20260903021416 70 0 0.0 0.0 0.00 0.00 0.00 55 1020.4
20260903020916 70 0 0.0 1.0 0.00 0.00 0.00 56 1020.3
20260903020414 70 0 0.0 1.0 0.00 0.00 0.00 56 1020.4
20260903020135 70 0 0.0 0.0 0.00 0.00 0.00 55 1020.3
20260903015641 70 0 0.0 0.0 0.00 0.00 0.00 55 1020.4
20260903015411 70 0 0.0 0.0 0.00 0.00 0.00 54 1020.3
20260903014632 71 0 0.0 0.0 0.00 0.00 0.00 54 1020.3
20260903013910 71 0 0.0 0.0 0.00 0.00 0.00 55 1020.3
20260903013406 71 0 0.0 4.0 0.00 0.00 0.00 54 1020.3
20260903012904 71 0 0.0 4.0 0.00 0.00 0.00 54 1020.2
20260903012405 72 0 1.0 4.0 0.00 0.00 0.00 51 1020.2
20260903011905 73 0 4.0 4.0 0.00 0.00 0.00 51 1020.2
20260903011407 73 0 0.0 0.0 0.00 0.00 0.00 51 1020.2
20260903010904 73 0 0.0 0.0 0.00 0.00 0.00 51 1020.1
20260903010406 73 0 0.0 0.0 0.00 0.00 0.00 51 1020.2
20260903005904 74 0 0.0 0.0 0.00 0.00 0.00 50 1020.2
20260903005406 74 0 0.0 0.0 0.00 0.00 0.00 50 1020.2
20260903004905 74 0 0.0 0.0 0.00 0.00 0.00 50 1020.2
20260903004406 73 0 0.0 0.0 0.00 0.00 0.00 50 1020.1
20260903003904 73 0 0.0 0.0 0.00 0.00 0.00 50 1020.0
20260903003406 73 0 0.0 0.0 0.00 0.00 0.00 50 1020.1
20260903002904 73 0 0.0 0.0 0.00 0.00 0.00 50 1020.1
20260903002406 73 0 0.0 0.0 0.00 0.00 0.00 50 1020.1
20260903001905 73 0 0.0 0.0 0.00 0.00 0.00 50 1020.1
20260903001407 73 0 0.0 0.0 0.00 0.00 0.00 51 1020.1
20260903000904 74 0 0.0 1.0 0.00 0.00 0.00 51 1020.1
20260903000406 74 0 0.0 2.0 0.00 0.00 0.00 50 1020.1
20260902235904 74 0 1.0 3.0 0.00 0.00 0.00 49 1020.2
20260902235406 75 0 1.0 3.0 0.00 0.00 0.00 49 1020.1
20260902234905 75 0 0.0 0.0 0.00 0.00 0.00 49 1020.2
20260902234405 75 0 0.0 2.0 0.00 0.00 0.00 49 1020.2
20260902234347 75 0 0.0 2.0 0.00 0.00 0.00 49 1020.2
20260902233406 75 0 0.0 0.0 0.00 0.00 0.00 49 1020.1
20260902232904 75 0 0.0 1.0 0.00 0.00 0.00 48 1020.1
20260902232406 75 0 0.0 1.0 0.00 0.00 0.00 48 1020.1
20260902231906 75 0 0.0 1.0 0.00 0.00 0.00 48 1020.1
20260902231407 76 0 0.0 0.0 0.00 0.00 0.00 48 1020.0
20260902230904 76 0 0.0 1.0 0.00 0.00 0.00 48 1020.0
20260902230405 76 0 0.0 2.0 0.00 0.00 0.00 48 1020.0
20260902230121 76 0 0.0 2.0 0.00 0.00 0.00 47 1020.0
20260902225406 76 0 1.0 3.0 0.00 0.00 0.00 47 1019.9
20260902224905 76 0 1.0 3.0 0.00 0.00 0.00 47 1019.9
20260902224405 76 0 2.0 2.0 0.00 0.00 0.00 47 1019.9
20260902223905 76 0 0.0 1.0 0.00 0.00 0.00 47 1019.9
20260902223405 77 0 0.0 0.0 0.00 0.00 0.00 46 1019.9
20260902222904 77 0 0.0 1.0 0.00 0.00 0.00 46 1019.9
20260902222406 77 0 0.0 3.0 0.00 0.00 0.00 46 1019.9
20260902222127 77 0 2.0 3.0 0.00 0.00 0.00 46 1019.8
20260902221407 77 0 2.0 3.0 0.00 0.00 0.00 46 1019.8
20260902221124 77 0 0.0 0.0 0.00 0.00 0.00 46 1019.7
20260902220406 77 0 0.0 0.0 0.00 0.00 0.00 46 1019.8
20260902220127 77 0 0.0 0.0 0.00 0.00 0.00 45 1019.7
20260902215627 78 0 0.0 1.0 0.00 0.00 0.00 45 1019.7
20260902214904 78 0 0.0 1.0 0.00 0.00 0.00 45 1019.7
20260902214625 78 0 0.0 1.0 0.00 0.00 0.00 45 1019.6
20260902213904 78 0 0.0 2.0 0.00 0.00 0.00 45 1019.6
20260902213407 78 0 1.0 2.0 0.00 0.00 0.00 45 1019.6
20260902212905 78 0 0.0 1.0 0.00 0.00 0.00 45 1019.7
20260902212406 78 0 0.0 1.0 0.00 0.00 0.00 44 1019.5
20260902211905 78 0 0.0 3.0 0.00 0.00 0.00 44 1019.5
20260902211418 78 0 1.0 3.0 0.00 0.00 0.00 44 1019.5
20260902211122 78 0 1.0 2.0 0.00 0.00 0.00 44 1019.5
20260902210406 78 0 2.0 3.0 0.00 0.00 0.00 44 1019.5
20260902205905 78 0 1.0 3.0 0.00 0.00 0.00 44 1019.5
20260902205406 79 0 2.0 3.0 0.00 0.00 0.00 44 1019.5
20260902204904 79 0 2.0 4.0 0.00 0.00 0.00 44 1019.5
20260902204405 79 0 3.0 4.0 0.00 0.00 0.00 44 1019.6
20260902203905 79 0 1.0 3.0 0.00 0.00 0.00 44 1019.5
20260902203405 79 0 1.0 5.0 0.00 0.00 0.00 44 1019.5
20260902203136 79 0 2.0 5.0 0.00 0.00 0.00 44 1019.4
20260902202406 79 0 1.0 4.0 0.00 0.00 0.00 44 1019.5
20260902202122 80 0 3.0 5.0 0.00 0.00 0.00 44 1019.4
20260902201407 80 0 2.0 5.0 0.00 0.00 0.00 44 1019.2
20260902200904 80 0 2.0 4.0 0.00 0.00 0.00 43 1019.4
20260902200406 80 0 2.0 4.0 0.00 0.00 0.00 43 1019.4
20260902200123 80 0 2.0 6.0 0.00 0.00 0.00 43 1019.2
20260902195334 81 0 3.0 6.0 0.00 0.00 0.00 42 1019.1
20260902194810 81 0 2.0 4.0 0.00 0.00 0.00 42 1019.1
20260902194310 81 0 2.0 4.0 0.00 0.00 0.00 42 1019.0
20260902194032 81 0 2.0 4.0 0.00 0.00 0.00 41 1019.0
20260902193309 81 0 3.0 4.0 0.00 0.00 0.00 41 1019.0
20260902192809 82 0 3.0 4.0 0.00 0.00 0.00 41 1019.0
20260902192314 82 0 3.0 4.0 0.00 0.00 0.00 41 1018.9
20260902192030 82 0 3.0 4.0 0.00 0.00 0.00 40 1018.9
20260902191309 82 0 2.0 4.0 0.00 0.00 0.00 40 1018.9
20260902190808 82 0 3.0 4.0 0.00 0.00 0.00 40 1018.7
20260902190308 83 0 3.0 4.0 0.00 0.00 0.00 39 1018.7
20260902190026 83 0 3.0 4.0 0.00 0.00 0.00 39 1018.6
20260902185309 83 0 2.0 3.0 0.00 0.00 0.00 38 1018.5
20260902184808 83 0 2.0 2.0 0.00 0.00 0.00 37 1018.4
20260902184308 83 0 0.0 4.0 0.00 0.00 0.00 37 1018.4
20260902183808 83 0 3.0 5.0 0.00 0.00 0.00 37 1018.3
20260902183528 83 0 4.0 5.0 0.00 0.00 0.00 38 1018.3
20260902183029 83 0 0.0 0.0 0.00 0.00 0.00 41 1018.3
20260902182306 83 0 0.0 1.0 0.00 0.00 0.00 41 1018.3
20260902181808 83 0 0.0 1.0 0.00 0.00 0.00 40 1018.2
20260902181308 83 0 1.0 1.0 0.00 0.00 0.00 39 1018.2
20260902180813 83 0 1.0 3.0 0.00 0.00 0.00 40 1018.1
20260902180807 83 0 1.0 3.0 0.00 0.00 0.00 40 1018.2
20260902175806 84 0 2.0 3.0 0.00 0.00 0.00 39 1018.1
20260902175307 84 0 2.0 2.0 0.00 0.00 0.00 40 1018.1
20260902174806 85 0 1.0 3.0 0.00 0.00 0.00 37 1018.1
20260902174304 85 244 2.0 3.0 0.00 0.00 0.00 36 1018.0
20260902173806 86 244 2.0 3.0 0.00 0.00 0.00 37 1018.1
20260902173307 86 244 2.0 3.0 0.00 0.00 0.00 36 1018.0
20260902173015 87 243 2.0 3.0 0.00 0.00 0.00 35 1018.0
20260902173005 87 243 2.0 3.0 0.00 0.00 0.00 35 1018.0
20260902171804 87 243 2.0 3.0 0.00 0.00 0.00 33 1018.0
20260902171529 87 243 2.0 3.0 0.00 0.00 0.00 33 1017.9
20260902170805 87 243 2.0 3.0 0.00 0.00 0.00 33 1017.9
20260902170306 87 243 1.0 2.0 0.00 0.00 0.00 34 1017.9
20260902165807 87 243 0.0 3.0 0.00 0.00 0.00 33 1017.9
20260902165308 87 251 0.0 3.0 0.00 0.00 0.00 33 1017.9
20260902164804 87 252 1.0 4.0 0.00 0.00 0.00 32 1018.0
20260902164524 87 252 3.0 4.0 0.00 0.00 0.00 32 1017.9
20260902164029 88 255 4.0 4.0 0.00 0.00 0.00 32 1018.0
20260902163304 88 206 4.0 4.0 0.00 0.00 0.00 32 1017.8
20260902162803 88 228 0.0 4.0 0.00 0.00 0.00 32 1017.8
20260902162527 88 230 1.0 6.0 0.00 0.00 0.00 33 1017.9
20260902161805 88 234 2.0 6.0 0.00 0.00 0.00 33 1017.8
20260902161305 88 209 3.0 5.0 0.00 0.00 0.00 34 1017.8
20260902160804 88 210 2.0 5.0 0.00 0.00 0.00 32 1017.9
20260902160305 88 214 3.0 6.0 0.00 0.00 0.00 32 1018.0
20260902160029 89 188 4.0 6.0 0.00 0.00 0.00 31 1018.0
20260902155306 89 213 3.0 5.0 0.00 0.00 0.00 31 1018.1
20260902154804 90 18 2.0 3.0 0.00 0.00 0.00 31 1018.1
20260902154527 89 104 2.0 5.0 0.00 0.00 0.00 32 1018.1
20260902153802 89 224 2.0 5.0 0.00 0.00 0.00 32 1018.1
20260902153301 89 204 2.0 3.0 0.00 0.00 0.00 32 1018.1
20260902152802 88 221 2.0 6.0 0.00 0.00 0.00 32 1018.2
20260902152533 88 142 2.0 6.0 0.00 0.00 0.00 32 1018.2
20260902151801 88 189 4.0 6.0 0.00 0.00 0.00 32 1018.2
20260902151300 88 247 3.0 6.0 0.00 0.00 0.00 31 1018.3
20260902151029 89 203 3.0 6.0 0.00 0.00 0.00 33 1018.3
20260902150306 89 340 2.0 5.0 0.00 0.00 0.00 32 1018.4
20260902145800 88 196 2.0 5.0 0.00 0.00 0.00 32 1018.4
20260902145300 89 200 2.0 6.0 0.00 0.00 0.00 33 1018.5
20260902144800 89 154 1.0 6.0 0.00 0.00 0.00 32 1018.5
20260902144300 90 131 5.0 6.0 0.00 0.00 0.00 32 1018.6
20260902143758 89 110 4.0 6.0 0.00 0.00 0.00 33 1018.6
20260902143258 88 197 1.0 6.0 0.00 0.00 0.00 34 1018.6
20260902142758 87 274 3.0 7.0 0.00 0.00 0.00 35 1018.7
20260902142258 87 250 5.0 7.0 0.00 0.00 0.00 35 1018.7
20260902141758 87 264 3.0 7.0 0.00 0.00 0.00 34 1018.8
20260902141258 88 240 2.0 4.0 0.00 0.00 0.00 33 1018.8
20260902140758 88 259 3.0 4.0 0.00 0.00 0.00 35 1018.8
20260902140258 87 241 3.0 4.0 0.00 0.00 0.00 34 1018.8
20260902135757 87 204 1.0 4.0 0.00 0.00 0.00 35 1018.8
20260902135257 87 216 2.0 5.0 0.00 0.00 0.00 36 1018.8
20260902134758 87 111 4.0 6.0 0.00 0.00 0.00 36 1019.0
20260902134257 87 202 2.0 6.0 0.00 0.00 0.00 37 1019.0
20260902133758 88 196 4.0 6.0 0.00 0.00 0.00 37 1019.0
20260902133257 87 24 2.0 6.0 0.00 0.00 0.00 36 1019.0
20260902132758 87 71 3.0 6.0 0.00 0.00 0.00 36 1019.1
20260902132257 87 62 3.0 6.0 0.00 0.00 0.00 36 1019.1
20260902131757 87 87 3.0 6.0 0.00 0.00 0.00 38 1019.2
20260902131519 87 271 2.0 5.0 0.00 0.00 0.00 37 1019.4
20260902130951 88 138 2.0 5.0 0.00 0.00 0.00 35 1019.5
20260902130940 87 321 1.0 5.0 0.00 0.00 0.00 36 1019.4
20260902125757 88 107 2.0 7.0 0.00 0.00 0.00 36 1019.5
20260902125256 87 76 3.0 7.0 0.00 0.00 0.00 36 1019.5
20260902124757 87 309 0.0 5.0 0.00 0.00 0.00 38 1019.7
20260902124256 86 247 3.0 10.0 0.00 0.00 0.00 38 1019.7
20260902124246 87 144 5.0 10.0 0.00 0.00 0.00 37 1019.8
20260902123255 87 73 3.0 4.0 0.00 0.00 0.00 37 1019.8
20260902122756 87 38 2.0 6.0 0.00 0.00 0.00 36 1019.8
20260902122255 86 243 2.0 6.0 0.00 0.00 0.00 38 1019.9
20260902122022 87 168 2.0 5.0 0.00 0.00 0.00 38 1019.9
20260902121257 86 228 1.0 5.0 0.00 0.00 0.00 38 1019.9
20260902120756 86 20 2.0 6.0 0.00 0.00 0.00 38 1019.9
20260902120257 85 58 4.0 6.0 0.00 0.00 0.00 39 1020.0
20260902115757 86 51 3.0 4.0 0.00 0.00 0.00 39 1020.0
20260902115256 85 99 2.0 4.0 0.00 0.00 0.00 39 1020.0
20260902115018 85 120 0.0 5.0 0.00 0.00 0.00 40 1020.1
20260902114256 84 151 3.0 5.0 0.00 0.00 0.00 41 1020.2
20260902113756 84 145 3.0 5.0 0.00 0.00 0.00 42 1020.3
20260902113256 84 159 3.0 4.0 0.00 0.00 0.00 41 1020.4
20260902112754 84 45 2.0 4.0 0.00 0.00 0.00 41 1020.5
20260902112255 84 66 2.0 4.0 0.00 0.00 0.00 41 1020.5
20260902111754 84 75 1.0 6.0 0.00 0.00 0.00 41 1020.5
20260902111254 83 103 3.0 6.0 0.00 0.00 0.00 41 1020.6
20260902110754 83 65 1.0 6.0 0.00 0.00 0.00 41 1020.6
20260902110255 84 71 5.0 10.0 0.00 0.00 0.00 40 1020.8
20260902110238 84 109 4.0 10.0 0.00 0.00 0.00 40 1020.8
20260902105254 82 35 3.0 7.0 0.00 0.00 0.00 42 1020.8
20260902104753 82 59 4.0 7.0 0.00 0.00 0.00 42 1020.9
20260902104253 83 65 4.0 6.0 0.00 0.00 0.00 42 1021.0
20260902103753 82 65 5.0 6.0 0.00 0.00 0.00 43 1021.0
20260902103253 82 117 2.0 7.0 0.00 0.00 0.00 43 1021.1